OVO976R ZPPP-ZBAA

Flight info

Callsign OVO976R
Flight time N/A
Altitude 37100
Route NODIB4Q NODIB W137 LPS A581 AGTIS W3 DS W4 IGIRO/K0859S1190 W4 VADMO W56 LEBUN/K0870S1160 W56 NUDKU/K0861S1190 W56 DUGEB DUGEB4A
Aircraft A333/H-SDE3GHIJ2J3J5M1RVWXY/LB2D1

Departure

Time N/A
Airport Kunming Changshui International Airport (ZPPP)

Arrival

Time 2026-05-01 09:11
Airport Beijing Capital International Airport (ZBAA)
Time Latitude Longitude Altitude Speed Heading
2026-05-01 07:23 30.55542 107.13569 36874 ft 517 kts 31°
2026-05-01 07:24 30.64385 107.20736 36894 ft 517 kts 31°
2026-05-01 07:24 30.70287 107.25529 36882 ft 518 kts 31°
2026-05-01 07:25 30.76199 107.30339 36880 ft 519 kts 31°
2026-05-01 07:25 30.82111 107.35156 36886 ft 519 kts 31°
2026-05-01 07:26 30.88055 107.39919 36891 ft 517 kts 28°
2026-05-01 07:26 30.94197 107.44296 36883 ft 519 kts 26°
2026-05-01 07:27 31.00420 107.48575 36887 ft 519 kts 26°
2026-05-01 07:27 31.06627 107.52888 36883 ft 519 kts 26°
2026-05-01 07:28 31.12819 107.57237 36910 ft 519 kts 27°
2026-05-01 07:28 31.19020 107.61612 36895 ft 522 kts 27°
2026-05-01 07:29 31.25242 107.66010 36888 ft 523 kts 27°
2026-05-01 07:29 31.31468 107.70417 36899 ft 523 kts 27°
2026-05-01 07:30 31.37657 107.74795 36898 ft 524 kts 27°
2026-05-01 07:30 31.43899 107.79229 36904 ft 526 kts 27°
2026-05-01 07:31 31.50160 107.83686 36916 ft 527 kts 27°
2026-05-01 07:32 31.65798 107.94838 36928 ft 526 kts 27°
2026-05-01 07:33 31.75172 108.01541 36925 ft 527 kts 27°
2026-05-01 07:33 31.84548 108.08261 36976 ft 526 kts 27°
2026-05-01 07:34 31.93902 108.14985 36941 ft 524 kts 27°
2026-05-01 07:35 32.00119 108.19470 36961 ft 524 kts 27°
2026-05-01 07:35 32.05207 108.23356 36962 ft 527 kts 35°
2026-05-01 07:35 32.07910 108.26286 36977 ft 530 kts 46°
2026-05-01 07:36 32.10145 108.29759 36965 ft 533 kts 58°
2026-05-01 07:36 32.13126 108.37745 36965 ft 533 kts 70°
2026-05-01 07:37 32.16667 108.50225 36965 ft 538 kts 72°
2026-05-01 07:37 32.19000 108.58620 36971 ft 538 kts 72°
2026-05-01 07:38 32.21904 108.66726 36972 ft 536 kts 57°
2026-05-01 07:38 32.26828 108.73161 36973 ft 524 kts 32°
2026-05-01 07:39 32.29820 108.75600 36977 ft 523 kts 29°
2026-05-01 07:39 32.39154 108.82311 36968 ft 525 kts 26°
2026-05-01 07:40 32.45406 108.86698 36967 ft 526 kts 26°
2026-05-01 07:40 32.51674 108.91170 36966 ft 526 kts 26°
2026-05-01 07:41 32.57925 108.95672 36965 ft 526 kts 26°
2026-05-01 07:42 32.67297 109.02438 36965 ft 526 kts 26°
2026-05-01 07:42 32.73542 109.06953 36987 ft 526 kts 27°
2026-05-01 07:43 32.79771 109.11469 36968 ft 524 kts 27°
2026-05-01 07:43 32.89118 109.18238 36967 ft 525 kts 26°
2026-05-01 07:44 33.01594 109.27320 36982 ft 524 kts 26°
2026-05-01 07:45 33.07803 109.31863 36978 ft 523 kts 26°
2026-05-01 07:45 33.14007 109.36404 36985 ft 524 kts 26°
2026-05-01 07:46 33.20223 109.40955 36989 ft 524 kts 26°
2026-05-01 07:47 33.29532 109.47775 36998 ft 523 kts 26°
2026-05-01 07:47 33.35603 109.52608 36998 ft 529 kts 36°
2026-05-01 07:47 33.38191 109.55690 36996 ft 535 kts 47°
2026-05-01 07:48 33.41788 109.63482 37000 ft 540 kts 73°
2026-05-01 07:48 33.43154 109.72310 36989 ft 540 kts 84°
2026-05-01 07:49 33.44368 109.85722 36985 ft 542 kts 85°
2026-05-01 07:50 33.45163 109.94711 36991 ft 544 kts 85°
2026-05-01 07:50 33.46429 110.08223 36986 ft 544 kts 85°
2026-05-01 07:51 33.47278 110.17220 36994 ft 544 kts 84°
2026-05-01 07:52 33.48546 110.30763 36998 ft 546 kts 84°
2026-05-01 07:52 33.49595 110.39763 37004 ft 546 kts 75°
2026-05-01 07:53 33.52661 110.47983 36989 ft 538 kts 50°
2026-05-01 07:53 33.55077 110.51340 36998 ft 528 kts 37°
2026-05-01 07:53 33.57938 110.54009 36996 ft 517 kts 25°
2026-05-01 07:53 33.61063 110.56095 37009 ft 513 kts 20°
2026-05-01 07:55 33.77134 110.65218 36996 ft 510 kts 18°
2026-05-01 07:56 33.93110 110.74377 36990 ft 509 kts 18°
2026-05-01 07:57 34.02687 110.79908 36992 ft 509 kts 19°
2026-05-01 07:58 34.15458 110.87296 36988 ft 508 kts 19°
2026-05-01 07:59 34.28191 110.94704 36983 ft 507 kts 19°
2026-05-01 08:00 34.45776 111.08896 36980 ft 529 kts 51°
2026-05-01 08:01 34.53615 111.24061 36978 ft 532 kts 56°
2026-05-01 08:02 34.59339 111.35576 36977 ft 531 kts 55°
2026-05-01 08:03 34.65112 111.47056 36977 ft 531 kts 55°
2026-05-01 08:03 34.70856 111.58491 36978 ft 531 kts 55°
2026-05-01 08:04 34.78537 111.73849 36979 ft 532 kts 56°
2026-05-01 08:05 34.84284 111.85389 36979 ft 531 kts 55°
2026-05-01 08:06 34.90031 111.96914 36985 ft 530 kts 55°
2026-05-01 08:07 34.97757 112.12266 36984 ft 532 kts 55°
2026-05-01 08:08 35.03523 112.23790 36983 ft 529 kts 54°
2026-05-01 08:09 35.11181 112.39151 36998 ft 530 kts 55°
2026-05-01 08:09 35.15000 112.46845 36992 ft 529 kts 54°
2026-05-01 08:10 35.22612 112.62169 36996 ft 530 kts 54°
2026-05-01 08:11 35.30325 112.77526 37010 ft 528 kts 54°
2026-05-01 08:12 35.36052 112.88992 37006 ft 525 kts 54°
2026-05-01 08:13 35.41752 113.00431 37010 ft 525 kts 54°
2026-05-01 08:13 35.47449 113.11913 37035 ft 524 kts 55°
2026-05-01 08:14 35.51224 113.19546 37021 ft 523 kts 54°
2026-05-01 08:14 35.54988 113.27173 37046 ft 522 kts 54°
2026-05-01 08:15 35.60628 113.38618 37075 ft 522 kts 55°
2026-05-01 08:16 35.64414 113.46187 37037 ft 519 kts 54°
2026-05-01 08:16 35.68229 113.53719 37032 ft 519 kts 54°
2026-05-01 08:17 35.72038 113.61251 37027 ft 518 kts 53°
2026-05-01 08:17 35.75838 113.68779 37017 ft 518 kts 54°
2026-05-01 08:18 35.79642 113.76329 37005 ft 519 kts 54°
2026-05-01 08:19 35.87216 113.91452 36994 ft 519 kts 54°
2026-05-01 08:19 35.91001 113.99032 36993 ft 519 kts 54°
2026-05-01 08:20 35.94774 114.06614 36988 ft 519 kts 54°
2026-05-01 08:20 35.98565 114.14228 36977 ft 521 kts 54°
2026-05-01 08:21 36.02351 114.21856 36974 ft 521 kts 54°
2026-05-01 08:21 36.06131 114.29490 36968 ft 521 kts 54°
2026-05-01 08:22 36.09907 114.37136 36973 ft 521 kts 54°
2026-05-01 08:22 36.13686 114.44803 36964 ft 522 kts 54°
2026-05-01 08:23 36.17460 114.52479 36963 ft 522 kts 54°
2026-05-01 08:23 36.21204 114.60115 36964 ft 522 kts 54°
2026-05-01 08:24 36.25122 114.67661 36962 ft 516 kts 44°
2026-05-01 08:24 36.27637 114.70753 36963 ft 505 kts 32°
2026-05-01 08:24 36.30557 114.73052 36957 ft 491 kts 18°
2026-05-01 08:24 36.33727 114.74430 36959 ft 477 kts
2026-05-01 08:25 36.36970 114.75159 36961 ft 477 kts
2026-05-01 08:25 36.43297 114.78063 36957 ft 496 kts 23°
2026-05-01 08:26 36.49426 114.81890 36956 ft 492 kts 18°
2026-05-01 08:26 36.54586 114.84924 36951 ft 493 kts 18°
2026-05-01 08:27 36.60793 114.88554 36953 ft 493 kts 18°
2026-05-01 08:27 36.67014 114.92176 36953 ft 493 kts 18°
2026-05-01 08:28 36.73228 114.95793 36952 ft 493 kts 18°
2026-05-01 08:28 36.79444 114.99417 36948 ft 493 kts 18°
2026-05-01 08:29 36.85657 115.03047 36958 ft 493 kts 18°
2026-05-01 08:29 36.91873 115.06687 36945 ft 493 kts 18°
2026-05-01 08:30 36.98091 115.10333 36941 ft 494 kts 18°
2026-05-01 08:30 37.04310 115.13987 36966 ft 494 kts 18°
2026-05-01 08:31 37.10549 115.17658 36946 ft 497 kts 18°
2026-05-01 08:31 37.16808 115.21348 36945 ft 497 kts 18°
2026-05-01 08:32 37.23068 115.25048 36960 ft 497 kts 18°
2026-05-01 08:32 37.29330 115.28755 36944 ft 498 kts 18°
2026-05-01 08:33 37.35593 115.32470 36945 ft 498 kts 18°
2026-05-01 08:33 37.41807 115.36162 36941 ft 496 kts 18°
2026-05-01 08:34 37.48050 115.39879 36942 ft 497 kts 18°
2026-05-01 08:34 37.54301 115.43605 36943 ft 497 kts 18°
2026-05-01 08:35 37.60554 115.47340 36943 ft 497 kts 18°
2026-05-01 08:35 37.66806 115.51081 36937 ft 498 kts 18°
2026-05-01 08:36 37.73063 115.54833 36937 ft 498 kts 18°
2026-05-01 08:36 37.79443 115.57910 36937 ft 482 kts
2026-05-01 08:36 37.82718 115.58451 36943 ft 468 kts 352°
2026-05-01 08:37 37.85954 115.58466 36935 ft 464 kts 349°
2026-05-01 08:37 37.92390 115.58095 36455 ft 464 kts 347°
2026-05-01 08:37 37.95617 115.57825 35741 ft 466 kts 347°
2026-05-01 08:38 37.98859 115.57545 35058 ft 468 kts 348°
2026-05-01 08:38 38.02117 115.57271 34431 ft 469 kts 348°
2026-05-01 08:38 38.05376 115.57009 33839 ft 470 kts 348°
2026-05-01 08:38 38.08643 115.56772 33089 ft 472 kts 349°
2026-05-01 08:39 38.11896 115.56585 32190 ft 476 kts 349°
2026-05-01 08:39 38.15269 115.56377 31222 ft 482 kts 350°
2026-05-01 08:39 38.18591 115.56156 30300 ft 488 kts 350°
2026-05-01 08:39 38.22003 115.55920 29261 ft 493 kts 351°
2026-05-01 08:40 38.28880 115.57144 27813 ft 510 kts 15°
2026-05-01 08:40 38.32159 115.58826 27201 ft 507 kts 18°
2026-05-01 08:40 38.35358 115.60699 26600 ft 505 kts 20°
2026-05-01 08:41 38.38499 115.62677 26019 ft 501 kts 22°
2026-05-01 08:41 38.41589 115.64679 25492 ft 495 kts 22°
2026-05-01 08:41 38.44627 115.66659 25123 ft 486 kts 22°
2026-05-01 08:41 38.47623 115.68599 24553 ft 481 kts 22°
2026-05-01 08:42 38.50603 115.70507 24009 ft 477 kts 22°
2026-05-01 08:42 38.53557 115.72380 23489 ft 472 kts 22°
2026-05-01 08:42 38.56482 115.74231 22839 ft 467 kts 23°
2026-05-01 08:42 38.59383 115.76067 22179 ft 464 kts 23°
2026-05-01 08:43 38.62261 115.77891 21627 ft 458 kts 23°
2026-05-01 08:43 38.65082 115.79708 21080 ft 452 kts 26°
2026-05-01 08:43 38.67693 115.81973 20351 ft 455 kts 36°
2026-05-01 08:43 38.70134 115.84537 19731 ft 452 kts 38°
2026-05-01 08:44 38.72528 115.87128 19117 ft 449 kts 38°
2026-05-01 08:44 38.74903 115.89704 18497 ft 446 kts 38°
2026-05-01 08:44 38.77264 115.92260 17906 ft 443 kts 38°
2026-05-01 08:44 38.79602 115.94789 17262 ft 438 kts 38°
2026-05-01 08:45 38.81904 115.97279 16972 ft 426 kts 38°
2026-05-01 08:45 38.84143 115.99701 16881 ft 418 kts 38°
2026-05-01 08:45 38.86366 116.02103 16809 ft 419 kts 38°
2026-05-01 08:45 38.88597 116.04514 16715 ft 419 kts 38°
2026-05-01 08:46 38.90825 116.06925 16660 ft 419 kts 38°
2026-05-01 08:46 38.93050 116.09335 16580 ft 418 kts 38°
2026-05-01 08:46 38.95273 116.11745 16507 ft 418 kts 38°
2026-05-01 08:46 38.97491 116.14152 16424 ft 417 kts 38°
2026-05-01 08:47 38.99683 116.16521 16352 ft 417 kts 37°
2026-05-01 08:47 39.02131 116.18554 16273 ft 411 kts 21°
2026-05-01 08:47 39.04825 116.19481 16204 ft 403 kts
2026-05-01 08:47 39.07605 116.19388 16134 ft 399 kts 351°
2026-05-01 08:48 39.10356 116.18987 16058 ft 398 kts 349°
2026-05-01 08:48 39.13105 116.18546 15987 ft 398 kts 349°
2026-05-01 08:48 39.15850 116.18109 15920 ft 396 kts 350°
2026-05-01 08:48 39.18579 116.17684 15845 ft 395 kts 350°
2026-05-01 08:49 39.21305 116.17265 15773 ft 394 kts 350°
2026-05-01 08:49 39.24028 116.16848 15695 ft 394 kts 350°
2026-05-01 08:49 39.26751 116.16434 15631 ft 394 kts 350°
2026-05-01 08:49 39.29470 116.16020 15557 ft 393 kts 350°
2026-05-01 08:50 39.32187 116.15606 15490 ft 393 kts 350°
2026-05-01 08:50 39.34899 116.15194 15420 ft 393 kts 351°
2026-05-01 08:50 39.37609 116.14783 15339 ft 391 kts 351°
2026-05-01 08:50 39.40309 116.14374 15273 ft 391 kts 351°
2026-05-01 08:51 39.43007 116.13964 15194 ft 390 kts 351°
2026-05-01 08:51 39.45703 116.13553 15133 ft 390 kts 351°
2026-05-01 08:51 39.48397 116.13142 15054 ft 389 kts 351°
2026-05-01 08:51 39.51088 116.12732 14985 ft 389 kts 351°
2026-05-01 08:52 39.53775 116.12323 14918 ft 389 kts 351°
2026-05-01 08:52 39.56461 116.11912 14850 ft 388 kts 351°
2026-05-01 08:52 39.59139 116.11502 14774 ft 387 kts 351°
2026-05-01 08:52 39.61807 116.11094 14691 ft 386 kts 351°
2026-05-01 08:53 39.64476 116.10685 14636 ft 386 kts 351°
2026-05-01 08:53 39.67140 116.10278 14562 ft 385 kts 351°
2026-05-01 08:53 39.69800 116.09869 14493 ft 385 kts 351°
2026-05-01 08:53 39.72456 116.09460 14424 ft 385 kts 351°
2026-05-01 08:54 39.75113 116.09050 14350 ft 384 kts 351°
2026-05-01 08:54 39.77766 116.08641 14289 ft 384 kts 351°
2026-05-01 08:54 39.80414 116.08233 14217 ft 383 kts 351°
2026-05-01 08:54 39.83070 116.07910 14147 ft 384 kts 355°
2026-05-01 08:55 39.85744 116.07843 14064 ft 384 kts 357°
2026-05-01 08:55 39.88416 116.07844 13994 ft 384 kts 358°
2026-05-01 08:55 39.91085 116.07855 13934 ft 383 kts 358°
2026-05-01 08:55 39.93736 116.07981 13846 ft 381 kts
2026-05-01 08:56 39.96377 116.08335 13613 ft 382 kts
2026-05-01 08:56 39.99023 116.08752 13360 ft 383 kts
2026-05-01 08:56 40.01664 116.09187 13100 ft 382 kts
2026-05-01 08:56 40.04297 116.09641 12836 ft 381 kts
2026-05-01 08:57 40.06915 116.10088 12575 ft 379 kts
2026-05-01 08:57 40.09530 116.10531 12327 ft 377 kts
2026-05-01 08:57 40.12103 116.10974 11968 ft 370 kts
2026-05-01 08:57 40.14610 116.11409 11486 ft 367 kts
2026-05-01 08:58 40.17120 116.11835 11177 ft 358 kts
2026-05-01 08:58 40.19541 116.12258 11050 ft 344 kts
2026-05-01 08:58 40.21867 116.12665 10940 ft 330 kts
2026-05-01 08:58 40.24094 116.13055 10848 ft 316 kts
2026-05-01 08:59 40.26232 116.13433 10765 ft 304 kts
2026-05-01 08:59 40.28288 116.13792 10684 ft 292 kts
2026-05-01 08:59 40.30279 116.14141 10569 ft 286 kts
2026-05-01 08:59 40.32231 116.14480 10408 ft 281 kts
2026-05-01 09:00 40.34184 116.14811 10050 ft 285 kts
2026-05-01 09:00 40.36145 116.15274 9722 ft 289 kts 14°
2026-05-01 09:00 40.37947 116.16460 9365 ft 295 kts 37°
2026-05-01 09:00 40.39182 116.18577 9030 ft 297 kts 68°
2026-05-01 09:01 40.39617 116.21220 8687 ft 296 kts 85°
2026-05-01 09:01 40.39751 116.23919 8342 ft 296 kts 89°
2026-05-01 09:01 40.39842 116.26618 8001 ft 296 kts 89°
2026-05-01 09:01 40.39935 116.29309 7665 ft 295 kts 88°
2026-05-01 09:02 40.40036 116.31983 7381 ft 290 kts 88°
2026-05-01 09:02 40.40144 116.34574 7308 ft 280 kts 89°
2026-05-01 09:02 40.40251 116.37085 7184 ft 271 kts 88°
2026-05-01 09:02 40.40356 116.39517 7059 ft 263 kts 88°
2026-05-01 09:03 40.40459 116.41871 6947 ft 254 kts 89°
2026-05-01 09:03 40.40553 116.44178 6691 ft 253 kts 90°
2026-05-01 09:03 40.40598 116.46496 6420 ft 252 kts 91°
2026-05-01 09:03 40.40617 116.48799 6153 ft 253 kts 92°
2026-05-01 09:04 40.40636 116.51080 6025 ft 247 kts 92°
2026-05-01 09:04 40.40582 116.53308 5778 ft 241 kts 107°
2026-05-01 09:04 40.39791 116.55138 5471 ft 230 kts 140°
2026-05-01 09:04 40.38477 116.56277 5266 ft 224 kts 156°
2026-05-01 09:05 40.37015 116.56898 4990 ft 221 kts 169°
2026-05-01 09:05 40.35475 116.57185 4669 ft 225 kts 173°
2026-05-01 09:05 40.33918 116.57414 4469 ft 223 kts 173°
2026-05-01 09:05 40.32409 116.57630 4306 ft 219 kts 172°
2026-05-01 09:06 40.30882 116.57849 4020 ft 219 kts 173°
2026-05-01 09:06 40.29374 116.58072 3794 ft 214 kts 172°
2026-05-01 09:06 40.27938 116.58287 3385 ft 209 kts 173°
2026-05-01 09:06 40.26515 116.58509 3040 ft 201 kts 172°
2026-05-01 09:07 40.25191 116.58726 2959 ft 182 kts 173°
2026-05-01 09:07 40.23968 116.58923 2966 ft 174 kts 171°
2026-05-01 09:07 40.22783 116.59115 2907 ft 173 kts 171°
2026-05-01 09:07 40.21597 116.59306 2702 ft 169 kts 172°
2026-05-01 09:08 40.20467 116.59481 2445 ft 159 kts 172°
2026-05-01 09:08 40.19400 116.59648 2225 ft 150 kts 173°
2026-05-01 09:08 40.18362 116.59812 2017 ft 150 kts 173°
2026-05-01 09:08 40.17365 116.59968 1797 ft 139 kts 173°
2026-05-01 09:09 40.16437 116.60112 1613 ft 132 kts 172°
2026-05-01 09:09 40.15532 116.60255 1426 ft 130 kts 171°
2026-05-01 09:09 40.14631 116.60398 1249 ft 131 kts 171°
2026-05-01 09:09 40.13720 116.60542 1061 ft 132 kts 171°
2026-05-01 09:10 40.12809 116.60676 867 ft 132 kts 171°
2026-05-01 09:10 40.11892 116.60815 685 ft 134 kts 169°
2026-05-01 09:10 40.10976 116.60978 503 ft 132 kts 172°
2026-05-01 09:10 40.10059 116.61123 352 ft 133 kts 171°
2026-05-01 09:11 40.09126 116.61248 165 ft 136 kts 172°
2026-05-01 09:11 40.08259 116.61391 125 ft 102 kts 173°
2026-05-01 09:11 40.07750 116.61476 128 ft 51 kts 173°
2026-05-01 09:11 40.07421 116.61518 125 ft 43 kts 182°
2026-05-01 09:12 40.07238 116.61465 123 ft 24 kts 202°
2026-05-01 09:12 40.07085 116.61377 125 ft 24 kts 204°
2026-05-01 09:12 40.06969 116.61314 126 ft 12 kts 240°
2026-05-01 09:12 40.06956 116.61191 127 ft 20 kts 263°
2026-05-01 09:13 40.06938 116.60992 124 ft 23 kts 263°
2026-05-01 09:13 40.06917 116.60784 126 ft 23 kts 262°
2026-05-01 09:13 40.06903 116.60643 123 ft 24 kts 262°
2026-05-01 09:13 40.06875 116.60449 122 ft 14 kts 232°
2026-05-01 09:14 40.06819 116.60432 125 ft 8 kts 176°
2026-05-01 09:14 40.06757 116.60441 125 ft 10 kts 174°
2026-05-01 09:14 40.06677 116.60453 125 ft 13 kts 173°
2026-05-01 09:14 40.06644 116.60497 124 ft 8 kts 98°
2026-05-01 09:15 40.06647 116.60578 124 ft 5 kts 85°
2026-05-01 09:15 40.06648 116.60589 124 ft 0 kts 83°